Wetbulb
41.20 37.63 35.05 38.53 39.61 40.48 40.01 38.41 37.40 38.12 43.63 43.00 41.92 40.96 42.33 43.97 44.64 43.98 44.67 45.05 46.07 47.10 48.95 48.56 47.79 47.59 48.31 48.61 47.55 47.66 48.08 49.24 49.20 49.56 50.65 53.23 54.07 52.57 51.45 53.37 54.24 54.39 55.49 56.13
38.19 34.24 39.73 41.96 41.80 40.77 39.55 35.94 35.79 39.46 45.01 43.88 41.93 40.92 43.39 44.18 43.93 44.45 44.34 44.70 45.28 45.41 45.66 46.96 46.66 46.26 45.50 45.88 46.79 46.76 46.58 46.59 47.47 46.88 46.90 48.82 49.04 49.41 49.33 50.45 50.61 52.17 53.12 53.67
35.30 38.66 42.73 41.60 40.20 39.10 38.41 36.05 37.82 39.96 43.15 44.29 42.03 37.41 39.40 43.44 44.55 45.93 45.84 45.98 45.72 44.92 44.55 45.90 46.74 45.81 45.31 45.43 45.38 46.40 46.30 46.20 46.35 47.04 45.60 45.61 46.36 46.40 45.67 46.54 47.04 48.43 50.47 51.60
37.80 41.98 41.17 40.11 39.66 40.17 35.27 40.34 42.99 41.63 40.05 34.83 41.10 29.37 37.25 41.30 42.39 44.57 44.71 44.63 44.89 45.50 45.96 46.02 45.01 44.17 43.70 42.99 45.04 45.86 46.22 45.77 45.81 45.62 44.67 42.88 42.34 42.38 43.81 44.71 45.51 46.38 47.77 47.97
36.74 38.58 38.88 38.62 40.22 42.42 38.71 45.02 43.52 42.78 39.93 38.79 37.11 32.28 35.51 42.05 40.52 42.29 43.09 44.00 43.72 44.23 44.87 44.49 44.08 43.69 43.68 43.21 43.00 44.33 45.16 46.05 44.91 43.75 43.63 42.85 41.45 42.01 43.09 43.63 43.23 44.05 44.92 46.02
38.37 41.20 41.20 40.88 42.75 42.56 43.75 43.88 42.88 39.46 37.70 29.92 35.69 33.10 32.44 37.97 41.06 42.54 43.83 43.35 43.44 43.13 43.65 44.29 44.28 44.00 42.55 42.01 41.86 42.62 43.30 43.78 44.76 44.05 43.39 42.10 40.92 41.35 41.62 41.66 41.89 42.73 43.54 44.01
37.09 38.35 40.23 43.09 39.76 41.96 41.36 39.36 29.85 28.91 27.17 27.33 39.06 34.97 34.03 42.22 44.51 44.32 42.34 41.83 42.27 42.68 41.94 41.64 41.69 41.59 41.90 41.83 41.91 42.64 42.67 42.56 43.26 43.06 43.12 42.63 41.82 41.34 40.99 41.34 41.75 41.78 42.48 42.61
31.53 30.18 38.10 41.79 39.29 38.10 39.74 37.92 31.66 24.78 25.78 29.23 38.69 31.54 34.85 44.67 46.46 45.47 43.86 42.88 42.47 41.48 42.10 41.84 41.79 41.46 42.09 42.41 41.68 41.85 42.69 42.65 42.56 42.58 42.64 42.74 42.46 41.89 41.83 41.86 41.81 42.06 42.21 42.71
32.18 32.96 39.54 41.49 42.54 41.20 38.15 33.98 39.36 34.25 34.32 30.89 32.00 34.76 40.59 44.07 42.71 42.90 42.14 42.44 41.39 41.48 41.44 41.75 41.85 41.79 41.70 42.00 41.64 41.11 41.96 42.04 42.08 42.23 41.59 42.01 42.24 41.73 41.86 41.94 41.88 42.10 42.44 43.74
38.22 30.32 38.38 40.53 41.86 41.48 39.14 41.80 34.21 34.00 27.00 25.45 30.18 31.56 32.37 37.93 39.22 41.27 41.23 41.21 41.45 42.08 41.66 41.75 41.50 41.48 41.61 41.81 41.14 40.93 41.56 41.25 40.63 40.92 41.41 41.58 41.30 41.20 41.15 41.27 40.99 41.32 42.17 42.70
39.20 34.29 34.31 38.73 36.59 35.86 36.99 36.18 37.63 37.18 33.22 26.23 25.37 28.51 40.12 39.62 40.66 40.43 41.18 42.04 41.54 40.86 41.55 41.83 41.33 41.69 40.67 40.05 40.03 39.93 40.25 40.16 39.51 40.15 40.03 40.84 40.29 40.62 40.32 40.27 40.74 41.23 41.43 42.10
39.02 34.23 28.91 33.02 39.00 40.74 40.19 38.66 38.01 30.21 29.91 32.62 29.99 29.41 44.06 42.48 42.46 42.49 42.13 42.58 42.12 42.03 41.90 41.62 41.35 40.54 39.55 39.46 39.69 39.42 38.83 39.41 39.40 39.90 39.46 40.16 39.72 39.44 38.77 39.00 39.99 40.66 40.49 41.52
37.72 29.81 25.10 29.45 33.74 36.03 34.96 37.67 39.49 38.65 35.04 31.53 27.22 28.66 41.65 43.24 42.32 42.90 41.50 41.74 42.03 41.81 41.02 40.85 40.31 40.01 39.42 39.38 39.83 39.30 39.01 39.09 39.64 39.86 38.70 38.76 38.53 38.30 37.53 38.12 39.02 39.62 39.59 40.02
40.99 32.44 29.29 26.06 29.36 32.93 31.85 36.01 37.75 36.81 28.07 29.04 30.59 32.70 37.89 40.24 40.75 41.19 41.79 41.84 41.67 41.74 41.63 40.13 39.25 38.95 39.08 39.64 39.43 39.23 39.10 39.33 39.49 39.15 38.31 37.78 37.46 37.81 37.61 38.39 38.82 39.14 39.35 38.23
36.19 29.72 32.74 34.50 35.89 35.67 34.95 35.31 35.84 35.26 34.60 30.60 33.37 35.18 38.29 40.38 40.66 41.41 42.06 41.63 41.77 41.20 40.88 40.18 38.89 38.30 38.22 38.09 38.77 38.87 39.18 39.49 39.18 38.54 37.94 37.60 38.03 38.38 38.38 38.29 38.43 38.04 37.35 37.08
35.59 29.13 32.08 29.90 34.51 34.11 32.93 36.25 36.44 36.10 36.00 35.31 36.99 35.21 42.19 42.48 42.44 41.03 41.31 41.85 41.54 40.91 40.62 40.22 39.88 39.06 38.60 38.54 38.02 39.00 38.55 39.19 39.13 38.26 38.18 38.82 38.73 38.57 37.83 37.60 36.80 36.18 35.86 35.60
33.02 31.41 27.44 25.65 31.48 31.00 24.51 31.41 34.94 35.53 36.81 36.85 32.92 35.86 41.10 39.47 40.72 40.22 40.69 42.52 41.62 40.80 40.35 39.86 39.28 38.50 38.08 37.67 38.20 37.42 38.14 39.06 38.53 38.24 38.97 39.07 38.60 37.74 37.05 36.29 35.39 34.52 33.94 34.26
31.88 30.93 28.39 25.12 26.83 15.67 33.56 37.02 38.33 37.99 38.44 36.60 36.73 38.61 40.84 40.94 41.71 41.30 43.15 42.00 40.93 40.72 40.33 39.44 38.65 37.51 37.67 37.19 37.30 37.65 38.56 38.55 38.05 37.65 38.17 38.50 37.80 36.82 35.86 34.85 33.94 33.62 33.82 33.53
36.24 31.23 24.93 21.79 22.30 28.59 33.19 36.11 35.52 34.75 33.69 37.99 36.48 40.58 41.67 41.20 40.39 37.47 42.30 42.66 41.27 41.03 40.25 39.21 38.29 37.80 36.60 36.96 37.14 37.24 37.33 37.33 37.68 37.00 37.04 37.40 37.31 35.58 34.66 33.55 32.90 33.25 33.60 33.82
36.39 34.63 28.37 22.03 19.45 17.92 30.08 38.41 39.05 38.73 30.44 37.68 39.25 38.47 38.51 39.36 34.17 35.85 40.61 41.58 41.13 41.16 40.23 38.60 37.87 37.33 36.46 35.88 36.53 36.44 35.81 36.06 35.95 36.75 36.74 36.94 36.36 35.02 33.71 33.06 32.80 33.51 33.82 34.37
28.64 27.56 25.67 23.02 20.21 26.91 35.98 39.02 39.66 29.97 30.76 38.55 40.44 39.47 39.21 38.61 38.40 37.95 41.05 41.18 41.54 40.44 39.88 38.96 37.45 36.01 35.52 35.84 36.39 35.42 35.26 34.93 36.57 37.25 36.98 36.38 34.99 33.93 33.68 32.82 32.55 32.65 33.18 33.40
28.15 26.44 25.85 25.37 19.60 20.82 38.91 37.67 33.23 35.85 36.12 40.07 40.80 41.00 40.77 38.52 39.39 39.82 40.76 40.21 40.36 39.57 38.96 37.36 35.88 35.09 35.20 36.10 36.18 34.36 34.22 36.25 36.46 36.13 35.78 34.66 33.93 34.08 34.16 31.85 32.14 32.22 32.26 31.75
26.96 31.06 28.86 31.10 30.39 36.06 37.30 36.92 37.98 37.97 37.49 37.78 40.40 42.06 40.39 39.12 39.23 40.34 39.85 40.05 39.74 38.87 36.60 36.84 35.49 34.53 34.86 35.47 36.02 34.25 34.70 36.06 35.55 34.72 33.67 33.08 33.19 32.81 32.54 30.89 30.70 30.70 31.16 30.60
33.05 35.96 30.72 31.85 35.14 36.42 38.70 39.30 40.74 40.05 39.19 39.82 42.20 41.26 41.16 39.49 40.03 39.81 40.13 39.61 38.92 36.30 35.33 35.57 34.84 34.17 33.25 34.90 35.42 35.34 35.78 35.81 34.74 33.42 32.50 32.07 31.20 30.64 30.61 30.55 30.44 29.57 29.37 28.76
31.94 35.50 32.05 31.23 35.56 37.60 37.79 39.32 39.57 39.48 41.38 41.52 42.19 41.65 41.01 40.23 39.68 40.06 39.68 39.22 36.72 35.77 35.44 35.67 34.66 34.13 33.92 34.56 35.03 35.21 35.28 34.77 33.48 32.89 32.33 31.07 30.57 29.48 29.23 29.12 29.39 29.88 30.45 30.01
33.99 34.77 32.91 31.74 36.57 37.43 37.81 40.17 40.47 40.25 40.56 41.37 41.00 40.31 41.16 40.89 39.52 40.28 39.45 38.76 35.93 35.19 35.20 34.60 34.61 34.13 33.97 34.60 34.53 34.83 35.32 34.50 32.67 31.18 30.48 29.62 29.45 29.15 28.59 27.90 28.31 31.78 32.34 32.50
MSLP
1010.95 1011.35 1010.71 1010.36 1010.86 1010.93 1011.43 1011.91 1012.66 1013.54 1014.16 1015.08 1016.58 1017.61 1018.55 1019.00 1019.23 1020.04 1020.74 1021.40 1021.91 1022.32 1022.89 1022.83 1022.97 1022.99 1022.81 1022.59 1022.37 1022.24 1021.93 1021.31 1020.94 1020.00 1020.17 1020.17 1020.45 1020.85 1021.27 1021.03 1020.97 1020.73 1020.39 1019.82
1011.32 1010.60 1010.45 1010.57 1010.87 1011.21 1011.46 1012.08 1012.84 1014.04 1014.61 1015.26 1017.22 1018.36 1018.80 1019.08 1019.52 1019.90 1020.75 1021.62 1022.29 1022.85 1023.12 1023.36 1023.51 1023.52 1023.35 1023.35 1023.29 1023.11 1022.96 1022.77 1022.28 1021.83 1022.08 1022.13 1021.90 1022.28 1022.44 1022.32 1021.91 1021.41 1020.85 1020.55
1011.13 1010.27 1010.11 1010.38 1010.62 1011.02 1011.38 1011.80 1012.68 1013.63 1015.00 1016.16 1017.07 1019.16 1019.36 1019.57 1019.67 1020.12 1020.98 1021.61 1022.45 1022.82 1023.30 1023.75 1023.96 1024.08 1024.01 1023.96 1023.96 1023.69 1023.54 1023.40 1023.29 1023.15 1022.97 1022.72 1022.63 1022.68 1022.74 1022.76 1022.74 1022.53 1022.25 1021.95
1010.95 1010.00 1009.85 1010.06 1010.02 1010.16 1010.62 1010.91 1012.10 1013.38 1014.56 1015.99 1016.44 1019.19 1019.68 1019.56 1019.87 1020.24 1021.21 1021.79 1022.47 1022.97 1023.54 1024.09 1024.40 1024.57 1024.61 1024.68 1024.53 1024.37 1024.29 1024.21 1024.25 1024.13 1024.11 1024.19 1024.25 1024.16 1024.28 1024.00 1023.56 1023.12 1022.75 1022.31
1010.39 1009.97 1009.97 1009.80 1009.30 1009.45 1009.70 1010.29 1011.66 1012.79 1014.42 1015.82 1016.95 1017.93 1018.64 1019.09 1019.81 1020.46 1021.14 1021.67 1022.32 1022.92 1023.46 1024.26 1024.64 1024.93 1025.06 1025.04 1025.04 1024.92 1024.82 1024.76 1024.84 1024.88 1024.84 1024.99 1025.11 1025.07 1024.78 1024.39 1023.91 1023.51 1023.14 1022.87
1010.03 1009.78 1009.83 1009.40 1009.31 1009.24 1009.27 1011.06 1013.12 1014.29 1015.51 1016.33 1016.25 1016.91 1017.88 1017.70 1018.32 1020.02 1020.77 1021.44 1022.17 1022.89 1023.54 1024.21 1024.72 1024.96 1025.24 1025.24 1025.33 1025.40 1025.39 1025.44 1025.35 1025.32 1025.26 1025.29 1025.43 1025.29 1024.99 1024.67 1024.29 1023.97 1023.68 1023.29
1010.26 1010.26 1009.98 1009.52 1009.48 1009.56 1009.55 1010.96 1013.52 1015.45 1015.90 1015.94 1015.95 1016.62 1016.14 1016.58 1017.67 1018.55 1019.94 1021.16 1021.94 1022.65 1023.39 1024.21 1024.67 1025.08 1025.30 1025.37 1025.51 1025.61 1025.64 1025.69 1025.62 1025.57 1025.59 1025.63 1025.69 1025.64 1025.50 1025.24 1024.88 1024.42 1023.93 1023.52
1010.59 1010.97 1010.16 1009.67 1009.58 1009.50 1009.78 1010.29 1011.67 1013.33 1014.93 1015.52 1015.74 1015.96 1015.05 1015.17 1017.03 1018.44 1019.55 1020.62 1021.65 1022.59 1023.23 1023.86 1024.40 1025.01 1025.40 1025.48 1025.62 1025.71 1025.79 1025.75 1025.68 1025.69 1025.73 1025.79 1025.74 1025.62 1025.52 1025.33 1025.09 1024.79 1024.37 1023.85
1010.58 1010.47 1010.13 1009.96 1009.76 1009.80 1010.33 1010.89 1011.38 1012.60 1013.99 1015.36 1015.99 1016.30 1016.03 1015.95 1017.36 1018.48 1019.56 1020.51 1021.45 1022.17 1022.80 1023.56 1024.24 1024.81 1025.17 1025.47 1025.61 1025.75 1025.82 1025.87 1025.93 1025.92 1026.00 1025.96 1025.77 1025.58 1025.49 1025.36 1025.09 1024.74 1024.24 1023.50
1010.12 1010.83 1010.58 1010.51 1010.29 1010.21 1010.24 1010.90 1011.66 1012.60 1014.13 1015.39 1016.10 1016.06 1015.74 1016.66 1017.04 1018.23 1019.28 1020.12 1021.00 1021.78 1022.70 1023.45 1024.10 1024.71 1025.09 1025.24 1025.56 1025.58 1025.67 1025.93 1026.06 1026.07 1026.09 1026.10 1025.91 1025.74 1025.62 1025.37 1025.14 1024.72 1024.09 1023.54
1010.18 1010.70 1011.39 1011.09 1010.63 1010.33 1010.90 1010.99 1011.78 1012.42 1013.67 1014.39 1016.00 1015.05 1014.39 1015.16 1015.84 1017.11 1018.56 1019.53 1020.41 1021.49 1022.39 1023.17 1023.93 1024.54 1024.86 1025.13 1025.30 1025.56 1025.72 1025.97 1026.07 1026.13 1026.22 1026.12 1025.99 1025.83 1025.63 1025.47 1025.11 1024.68 1024.17 1023.62
1010.01 1010.96 1011.82 1011.36 1010.84 1010.69 1010.73 1011.10 1011.57 1012.73 1013.76 1014.26 1014.37 1014.45 1013.44 1014.72 1015.80 1016.79 1018.09 1019.19 1020.15 1021.00 1021.98 1022.86 1023.77 1024.35 1024.77 1024.92 1025.21 1025.67 1025.94 1025.91 1025.96 1026.28 1026.25 1026.22 1026.15 1026.04 1025.80 1025.51 1025.12 1024.66 1024.33 1023.85
1010.07 1011.11 1012.43 1012.49 1012.14 1011.38 1011.06 1011.21 1011.50 1012.23 1013.29 1013.95 1014.53 1014.40 1013.37 1014.60 1015.74 1016.64 1017.65 1018.84 1019.90 1021.05 1022.04 1022.98 1023.69 1024.13 1024.52 1024.95 1025.27 1025.52 1025.76 1025.86 1026.04 1026.25 1026.35 1026.40 1026.34 1026.06 1025.77 1025.50 1025.18 1024.74 1024.43 1024.05
1009.66 1011.00 1011.57 1011.53 1011.14 1011.21 1011.31 1010.96 1011.42 1012.10 1013.53 1013.61 1013.60 1014.09 1014.36 1014.64 1015.34 1016.34 1017.35 1018.36 1019.73 1020.75 1021.61 1022.53 1023.38 1024.02 1024.60 1024.80 1024.98 1025.29 1025.65 1025.94 1026.19 1026.44 1026.54 1026.65 1026.45 1026.08 1025.78 1025.55 1025.26 1024.95 1024.58 1024.27
1010.27 1011.33 1011.81 1011.59 1011.04 1010.88 1010.56 1010.73 1011.09 1011.62 1012.21 1012.62 1012.83 1012.82 1013.11 1013.49 1014.30 1015.30 1016.56 1018.11 1019.30 1020.32 1021.29 1022.30 1023.26 1023.89 1024.32 1024.69 1024.92 1025.27 1025.78 1026.02 1026.35 1026.58 1026.68 1026.72 1026.47 1026.19 1025.95 1025.71 1025.56 1025.28 1024.93 1024.53
1010.86 1011.82 1012.14 1012.21 1011.59 1011.07 1010.89 1010.46 1010.42 1010.89 1011.47 1011.87 1012.33 1012.67 1012.34 1013.24 1014.41 1015.39 1016.35 1017.61 1018.72 1019.87 1021.02 1022.11 1022.89 1023.52 1024.07 1024.57 1024.99 1025.45 1025.86 1026.17 1026.43 1026.62 1026.73 1026.63 1026.54 1026.36 1026.21 1026.11 1025.92 1025.60 1025.16 1024.67
1011.39 1011.99 1013.01 1013.02 1012.37 1011.71 1011.35 1009.40 1009.78 1010.19 1010.39 1010.70 1011.75 1011.60 1012.24 1013.60 1013.94 1014.77 1016.02 1017.04 1018.21 1019.45 1020.64 1021.75 1022.52 1023.23 1023.93 1024.47 1024.96 1025.49 1025.86 1026.25 1026.55 1026.70 1026.73 1026.75 1026.74 1026.64 1026.69 1026.48 1026.23 1025.89 1025.36 1024.85
1011.30 1012.34 1013.32 1013.79 1013.25 1012.20 1008.58 1008.14 1008.19 1008.72 1009.39 1009.57 1010.37 1010.82 1011.42 1012.14 1013.33 1014.49 1015.33 1016.52 1017.93 1019.19 1020.51 1021.49 1022.30 1023.13 1023.81 1024.41 1024.96 1025.33 1025.76 1026.34 1026.61 1026.81 1026.85 1026.88 1026.88 1026.96 1026.84 1026.61 1026.38 1026.04 1025.61 1025.05
1010.16 1011.98 1013.63 1014.01 1013.57 1011.39 1009.24 1008.04 1007.89 1008.09 1008.86 1008.89 1009.59 1010.39 1011.30 1012.60 1013.97 1015.11 1015.40 1016.15 1017.34 1018.74 1020.06 1021.09 1021.95 1022.81 1023.73 1024.44 1024.94 1025.46 1026.10 1026.45 1026.61 1026.85 1026.96 1026.98 1027.10 1027.10 1027.01 1026.78 1026.51 1026.18 1025.71 1025.19
1010.81 1011.21 1012.73 1013.83 1013.25 1010.89 1008.75 1007.29 1006.99 1007.63 1008.19 1008.10 1008.65 1010.00 1011.04 1012.43 1014.04 1014.81 1015.49 1016.37 1017.89 1018.95 1019.96 1020.95 1021.84 1022.75 1023.64 1024.43 1024.83 1025.59 1026.23 1026.46 1026.66 1026.80 1026.88 1027.19 1027.26 1027.21 1027.18 1026.95 1026.64 1026.30 1025.85 1025.38
1011.10 1011.86 1012.57 1013.18 1012.23 1009.95 1007.53 1006.86 1006.77 1007.44 1006.61 1006.76 1007.67 1009.01 1010.25 1011.02 1011.53 1014.03 1015.54 1016.76 1017.61 1018.73 1019.79 1020.74 1021.70 1022.70 1023.52 1024.26 1024.81 1025.66 1026.21 1026.55 1026.66 1026.67 1026.96 1027.24 1027.27 1027.25 1027.25 1027.12 1026.77 1026.43 1026.00 1025.56
1009.17 1010.71 1011.63 1011.87 1011.29 1009.09 1006.40 1006.60 1005.84 1005.19 1005.44 1005.69 1006.61 1007.91 1009.46 1010.98 1012.48 1013.96 1015.39 1016.62 1017.71 1018.68 1019.73 1020.67 1021.77 1022.78 1023.54 1024.06 1024.67 1025.59 1026.16 1026.47 1026.58 1026.77 1027.03 1027.23 1027.35 1027.41 1027.33 1027.17 1026.89 1026.49 1026.17 1025.83
1008.13 1007.30 1008.17 1008.71 1006.97 1006.06 1005.37 1004.65 1004.33 1004.58 1005.12 1005.62 1006.25 1007.48 1008.91 1010.85 1012.32 1013.72 1015.21 1016.37 1017.41 1018.37 1019.51 1020.59 1021.63 1022.81 1023.54 1024.06 1024.47 1025.39 1026.09 1026.29 1026.52 1026.79 1027.07 1027.21 1027.37 1027.46 1027.33 1027.15 1026.90 1026.60 1026.29 1026.04
1006.55 1006.25 1006.74 1007.20 1006.16 1005.67 1004.86 1004.60 1004.29 1004.52 1004.72 1005.29 1005.99 1007.26 1008.44 1010.42 1012.08 1013.61 1014.90 1016.08 1017.16 1018.24 1019.36 1020.49 1021.68 1022.78 1023.69 1024.08 1024.53 1025.26 1025.90 1026.08 1026.39 1026.84 1027.14 1027.30 1027.45 1027.49 1027.33 1027.14 1026.86 1026.68 1026.49 1026.15
1004.58 1005.30 1005.22 1005.43 1004.85 1004.91 1004.74 1004.51 1004.53 1004.93 1005.03 1005.78 1006.72 1007.34 1008.69 1010.06 1011.96 1012.88 1014.45 1015.68 1016.88 1018.02 1019.29 1020.30 1021.42 1022.48 1023.45 1024.09 1024.74 1025.28 1025.71 1025.99 1026.41 1026.76 1027.18 1027.58 1027.59 1027.52 1027.45 1027.22 1026.85 1026.64 1026.51 1026.24
1002.59 1002.61 1003.51 1002.82 1003.31 1003.50 1003.73 1003.93 1004.12 1004.73 1005.42 1006.03 1006.89 1008.53 1009.24 1009.70 1011.34 1012.79 1014.18 1015.33 1016.59 1017.94 1019.19 1020.33 1021.28 1022.24 1023.29 1023.98 1024.75 1025.29 1025.61 1025.95 1026.40 1026.92 1027.39 1027.66 1027.71 1027.61 1027.49 1027.22 1026.88 1026.62 1026.33 1025.95
Wind_Speed
4 5 12 12 5 5 5 8 7 4 11 16 14 13 8 7 14 15 14 13 13 13 9 10 11 9 10 12 15 15 16 18 13 12 8 8 9 9 10 10 14 15 13 15
2 10 5 5 5 3 5 7 4 7 9 19 14 11 9 9 10 16 16 13 12 9 8 9 9 9 9 9 12 13 14 14 12 10 7 4 4 6 7 8 11 13 14 16
5 4 9 7 5 9 9 8 7 22 10 15 19 4 5 3 9 13 13 14 11 12 11 8 10 8 9 10 10 12 12 14 14 12 9 7 4 4 6 10 9 10 13 11
6 5 9 6 9 14 16 9 20 24 24 16 3 5 6 9 9 13 13 13 12 13 11 9 8 8 8 7 7 8 8 10 11 11 10 12 8 8 6 7 7 8 12 13
7 7 5 6 5 6 8 17 27 26 15 13 4 6 5 14 11 12 11 13 12 12 13 10 8 7 5 7 7 7 8 8 7 7 8 7 8 4 4 6 10 11 10 11
7 3 2 4 2 3 10 19 17 6 4 1 10 7 7 16 17 15 14 14 15 13 12 10 7 7 6 4 7 6 7 6 6 7 7 8 7 7 8 8 8 8 8 9
3 2 2 2 6 4 12 22 7 4 3 6 15 5 8 18 21 21 20 16 15 14 13 10 9 7 5 6 5 5 6 5 5 6 6 6 5 5 6 5 6 8 8 7
6 3 6 3 3 6 12 9 9 11 9 8 8 8 7 21 22 19 17 16 15 14 13 11 9 8 7 6 6 6 5 5 6 5 5 4 4 2 2 3 3 4 4 6
5 4 3 4 0 4 7 3 6 7 1 7 4 2 14 19 20 19 17 15 15 13 12 12 9 8 7 7 6 7 6 5 5 4 4 4 4 5 5 7 5 4 5 8
4 3 3 3 2 2 3 3 3 3 7 6 4 5 12 20 22 19 18 17 15 14 10 10 9 8 6 7 6 7 6 5 4 5 4 3 4 5 6 5 6 7 8 9
5 5 3 5 6 6 3 2 3 4 5 6 6 7 12 22 25 24 19 17 15 14 13 11 8 7 8 7 7 7 7 6 6 5 4 5 5 6 6 6 6 7 8 9
5 6 4 4 1 3 4 6 5 6 5 2 4 5 17 22 21 20 19 16 14 15 13 12 11 9 7 7 7 7 5 6 4 3 5 6 6 6 6 6 7 7 8 7
6 1 4 3 6 3 5 4 4 5 3 6 7 5 9 17 18 18 17 15 15 14 13 11 10 9 7 7 7 6 5 4 5 5 6 6 6 6 6 7 7 6 7 10
8 5 8 10 6 7 7 9 7 7 4 4 5 8 13 19 20 16 18 17 15 15 16 12 9 8 7 7 7 6 5 4 4 6 6 6 6 6 6 7 8 10 11 12
7 6 5 6 5 7 8 9 10 9 6 8 9 17 22 22 22 21 19 16 16 15 15 13 11 8 7 7 7 6 5 5 5 6 6 5 6 6 6 7 9 11 11 11
2 4 5 5 3 3 6 15 15 8 7 4 16 9 18 18 17 15 17 18 18 17 16 14 12 10 8 8 7 6 5 6 6 6 5 5 6 6 6 7 10 11 11 11
8 7 5 5 2 4 6 16 12 6 8 11 13 8 19 16 20 19 18 20 17 18 16 15 13 10 9 8 7 6 5 6 6 5 4 5 5 6 6 8 9 10 11 11
9 8 4 4 3 4 9 8 14 21 14 7 7 13 23 21 16 15 17 17 19 18 16 14 12 9 9 7 7 6 7 6 6 5 5 5 5 5 6 8 9 9 9 11
6 6 3 7 4 5 6 6 12 13 12 11 13 15 19 17 14 4 8 15 18 17 15 13 10 11 8 8 7 8 7 6 6 5 5 5 5 5 6 8 8 8 9 10
5 5 6 4 8 13 8 6 9 9 13 11 15 19 20 20 15 11 12 17 16 16 14 13 11 10 10 7 8 9 6 6 5 4 4 5 4 4 5 6 7 7 8 9
5 4 8 3 5 9 8 5 10 15 11 14 20 21 23 23 7 11 16 17 18 17 16 12 13 11 9 8 9 8 6 6 4 4 6 5 4 5 5 5 5 6 8 7
12 10 7 3 2 11 8 9 18 7 4 17 19 23 23 13 20 20 19 19 18 17 14 12 12 10 7 8 10 7 7 5 5 5 6 5 5 5 5 5 5 5 6 8
6 10 10 13 11 5 5 4 6 6 7 8 18 20 21 23 22 23 20 20 17 17 13 13 13 10 7 7 9 8 6 6 5 5 5 4 4 4 4 5 5 5 6 7
5 6 6 5 8 7 7 3 5 6 6 8 16 21 25 23 23 21 19 17 16 13 15 12 14 12 8 7 8 9 6 6 5 4 4 3 4 4 4 3 3 3 4 6
7 10 9 4 6 3 4 4 6 6 11 15 18 24 22 26 21 22 18 16 15 15 13 14 13 11 10 9 9 7 6 6 5 4 4 3 3 3 4 3 4 4 4 4
8 13 13 11 7 8 9 10 10 16 15 19 19 15 19 24 22 18 17 16 16 16 14 12 13 12 10 11 9 7 6 6 5 5 4 2 1 2 3 4 3 4 8 11
Wind_Direction
204 155 199 202 139 110 111 111 122 89 142 103 123 124 133 121 105 109 110 105 99 90 80 67 58 44 47 46 43 39 37 27 26 17 13 25 37 28 29 25 16 18 12 16
151 224 187 172 199 178 134 138 144 117 145 112 121 114 124 130 126 127 125 120 117 109 87 74 60 46 38 42 47 44 42 36 35 32 22 13 4 29 38 18 14 13 18 21
190 239 181 181 197 203 205 178 170 148 119 106 107 58 125 97 119 123 126 132 129 123 109 84 66 52 44 42 37 44 40 42 36 32 31 30 22 29 20 15 11 8 12 10
230 253 172 173 203 188 215 191 157 142 138 155 148 160 222 161 140 127 133 136 136 130 114 105 86 63 56 46 54 51 46 46 45 36 41 41 37 23 1 357 359 1 4 8
234 169 179 195 198 183 195 164 157 152 140 133 204 112 202 164 164 151 149 137 135 131 127 123 117 109 93 74 66 51 45 48 47 49 54 51 45 24 360 6 8 8 6 8
179 160 139 182 218 212 133 127 129 66 120 239 190 129 210 185 168 155 151 143 140 134 130 126 129 122 111 96 89 84 69 53 54 48 41 47 42 23 20 10 12 6 2 0
84 80 287 160 98 359 137 139 134 162 222 212 191 210 209 189 163 163 155 150 144 140 136 140 137 125 116 98 89 102 76 57 60 64 57 54 51 35 17 358 354 353 356 358
156 194 186 194 204 171 169 147 165 169 181 180 156 227 227 172 159 152 148 150 146 147 148 152 152 152 153 136 109 100 88 58 46 51 45 40 38 27 352 330 324 315 322 332
150 230 144 170 119 183 190 167 185 108 68 122 148 83 19 135 143 149 152 152 155 153 152 150 152 153 142 138 126 117 102 59 39 38 33 26 22 16 359 345 335 315 312 335
197 116 232 126 109 338 130 166 98 8 157 166 197 209 163 164 158 160 165 163 160 159 147 145 145 148 145 132 130 110 101 82 43 38 28 30 15 12 3 350 344 334 335 338
153 120 211 124 207 170 127 193 196 131 149 151 148 245 167 172 167 167 167 167 162 155 155 152 147 143 140 133 121 104 85 74 48 41 24 40 12 10 6 356 343 339 340 342
187 122 159 191 248 203 193 194 157 148 211 139 150 258 176 169 168 162 165 163 158 153 155 149 147 144 138 125 113 113 101 78 55 47 38 40 18 8 3 349 338 335 336 340
187 121 93 44 333 272 202 200 161 117 84 197 136 248 176 158 157 162 154 154 152 153 146 144 142 141 131 132 128 115 96 73 45 46 55 32 12 7 353 346 342 341 346 350
114 140 162 189 211 155 188 196 184 143 134 169 203 144 155 160 160 157 157 155 157 155 149 144 136 141 145 137 126 112 93 71 64 64 53 33 4 356 355 350 350 356 359 354
118 162 164 216 231 184 176 186 177 191 167 172 180 167 177 171 169 166 158 157 156 149 145 147 147 146 141 121 114 99 88 76 79 72 52 16 358 359 359 355 4 357 355 350
23 193 146 210 172 90 198 207 197 172 171 110 167 180 179 164 149 152 158 161 158 154 151 149 145 141 135 127 118 107 96 84 97 72 45 15 10 2 1 17 1 355 345 341
143 138 116 229 120 81 306 211 195 170 187 150 176 195 159 164 164 165 162 167 158 152 151 147 144 138 130 127 125 117 107 105 88 76 43 26 14 10 29 9 1 346 339 332
143 126 122 167 75 215 251 197 189 195 187 158 129 160 169 172 166 164 170 158 151 149 146 143 141 132 133 129 123 121 100 111 94 68 48 29 22 41 18 9 355 343 338 336
137 129 136 146 206 295 279 199 178 169 209 181 157 165 165 153 139 150 161 153 152 149 146 145 141 133 130 131 134 103 105 102 87 69 49 35 46 38 18 4 347 340 340 338
118 109 133 139 167 218 210 215 141 95 224 185 157 168 159 149 172 185 156 139 137 138 142 142 132 130 126 137 119 111 118 104 93 79 55 67 49 36 14 346 340 336 339 336
174 84 184 139 212 276 244 196 136 178 227 175 169 168 165 177 174 140 140 137 140 143 145 135 132 136 140 137 118 117 120 110 115 85 77 87 45 25 5 338 330 330 336 330
170 164 186 105 98 264 199 150 175 200 177 181 165 165 165 133 134 142 144 142 144 146 142 134 130 134 140 131 119 125 117 130 103 79 99 80 55 23 360 345 331 335 340 344
202 186 178 185 206 215 247 204 199 169 152 164 155 160 144 143 147 149 149 149 151 149 141 139 134 130 131 131 127 121 141 124 104 83 114 88 64 26 351 352 345 345 351 350
237 152 172 110 219 225 228 241 168 167 153 147 155 148 146 148 151 150 150 150 151 144 141 137 134 136 137 134 122 131 140 123 108 92 122 86 49 22 356 351 351 346 341 349
182 153 168 225 261 124 248 192 147 100 116 128 147 149 149 146 155 150 151 150 146 143 141 143 143 142 145 134 128 133 132 120 109 104 110 82 35 4 355 353 340 342 314 333
184 177 184 220 178 173 198 184 154 137 140 143 138 140 152 149 150 150 151 147 146 144 143 141 143 140 141 131 131 131 124 122 119 103 117 94 50 319 352 344 346 323 338 339